Date String (YYYY-MM-DD hh:mm:ss) UTC,Instrument flags,Ambient pressure (hPa),Sample flow (lpm),Bypass flow (lpm),Sample temperature (°C),Ambient temperature (°C),ASC tube jacket temperature (°C),LED temperature (°C),Box temperature (°C),Sample RH (%),Span deviation,Mass concentration (μg/m³),Mass concentration (μg/m³),Mass concentration (μg/m³)
DateTimeUTC,F1_M11,P_M11,Q1_M11,Q2_M11,T1_M11,T2_M11,T3_M11,T4_M11,T5_M11,U1_M11,ZSPAN_M11,X0_M11,X2_M11,X1_M11
2022-01-07 21:00:00,,0812.1,5.01,0.00,26.4,25.7,00.0,35.1,28.3,07.6,0000.0,0008.93,0004.26,0003.95
2022-01-07 21:01:00,,0812.1,4.98,0.00,26.4,25.7,00.0,35.1,28.3,07.7,0000.0,0008.11,0003.94,0003.64
2022-01-07 21:02:00,,0812.1,5.02,0.00,26.4,25.7,00.0,35.1,28.3,07.5,0000.0,0007.30,0003.66,0003.36
2022-01-07 21:03:00,,0812.1,5.01,0.00,26.4,25.7,00.0,35.2,28.3,07.4,0000.0,0005.70,0003.45,0003.17
2022-01-07 21:04:00,,0812.1,4.98,0.00,26.5,25.8,00.0,35.2,28.3,07.5,0000.0,0005.43,0003.33,0003.01
2022-01-07 21:05:00,,0812.1,5.00,0.00,26.5,25.8,00.0,35.2,28.4,08.5,0000.0,0006.21,0003.27,0002.86
2022-01-07 21:06:00,,0812.1,5.01,0.00,26.5,25.8,00.0,35.2,28.4,09.0,0000.0,0006.53,0003.24,0002.82
2022-01-07 21:07:00,,0812.1,4.99,0.00,26.5,25.9,00.0,35.3,28.4,08.0,0000.0,0006.64,0003.21,0002.79
2022-01-07 21:08:00,,0812.1,5.01,0.00,26.5,25.9,00.0,35.3,28.4,07.2,0000.0,0006.60,0003.13,0002.69
2022-01-07 21:09:00,,0811.9,5.00,0.00,26.6,25.9,00.0,35.3,28.5,07.0,0000.0,0006.27,0002.94,0002.51
2022-01-07 21:10:00,,0811.9,5.00,0.00,26.6,25.9,00.0,35.3,28.5,07.0,0000.0,0005.70,0002.77,0002.36
2022-01-07 21:11:00,,0812.0,5.01,0.00,26.6,26.0,00.0,35.4,28.5,07.4,0000.0,0005.53,0002.70,0002.28
2022-01-07 21:12:00,,0812.1,5.00,0.00,26.6,26.0,00.0,35.4,28.6,07.4,0000.0,0005.53,0002.72,0002.29
2022-01-07 21:13:00,,0812.2,4.99,0.00,26.7,26.0,00.0,35.4,28.6,07.6,0000.0,0005.95,0002.90,0002.40
2022-01-07 21:14:00,,0812.1,5.01,0.00,26.7,26.0,00.0,35.4,28.6,07.2,0000.0,0006.06,0002.98,0002.47
2022-01-07 21:15:00,,0812.1,5.00,0.00,26.7,26.1,00.0,35.5,28.6,07.1,0000.0,0006.22,0003.01,0002.47
2022-01-07 21:16:00,,0812.1,5.00,0.00,26.7,26.1,00.0,35.5,28.6,07.1,0000.0,0005.25,0002.94,0002.42
2022-01-07 21:17:00,,0812.2,5.00,0.00,26.8,26.1,00.0,35.5,28.6,07.0,0000.0,0004.58,0002.79,0002.29
2022-01-07 21:18:00,,0812.1,5.01,0.00,26.8,26.1,00.0,35.5,28.7,07.0,0000.0,0004.30,0002.67,0002.18
2022-01-07 21:19:00,,0812.1,4.99,0.00,26.8,26.1,00.0,35.6,28.7,07.1,0000.0,0004.11,0002.67,0002.15
2022-01-07 21:20:00,,0812.2,5.01,0.00,26.8,26.1,00.0,35.6,28.7,07.3,0000.0,0004.17,0002.73,0002.20
2022-01-07 21:21:00,,0812.4,5.00,0.00,26.8,26.1,00.0,35.6,28.8,07.4,0000.0,0004.24,0002.81,0002.30
2022-01-07 21:22:00,,0812.2,5.01,0.00,26.8,26.2,00.0,35.6,28.7,07.5,0000.0,0004.33,0002.89,0002.41
2022-01-07 21:23:00,,0812.2,4.99,0.00,26.9,26.2,00.0,35.7,28.7,07.2,0000.0,0004.20,0002.82,0002.40
2022-01-07 21:24:00,,0812.0,4.98,0.00,26.9,26.2,00.0,35.7,28.7,07.3,0000.0,0003.78,0002.60,0002.27
2022-01-07 21:25:00,,0811.8,5.02,0.00,26.9,26.2,00.0,35.7,28.8,07.3,0000.0,0003.90,0002.61,0002.24
2022-01-07 21:26:00,,0812.0,4.99,0.00,26.9,26.3,00.0,35.7,28.8,07.3,0000.0,0003.82,0002.58,0002.21
2022-01-07 21:27:00,,0812.1,5.01,0.00,26.9,26.3,00.0,35.7,28.8,07.1,0000.0,0003.78,0002.52,0002.14
2022-01-07 21:28:00,,0812.3,4.99,0.00,27.0,26.3,00.0,35.7,28.8,07.1,0000.0,0003.85,0002.49,0002.08
2022-01-07 21:29:00,,0812.4,5.00,0.00,27.0,26.3,00.0,35.8,28.9,06.9,0000.0,0003.85,0002.50,0002.07
2022-01-07 21:30:00,,0812.2,5.00,0.00,27.0,26.3,00.0,35.8,28.9,06.9,0000.0,0003.82,0002.47,0002.05
2022-01-07 21:31:00,,0812.2,5.00,0.00,27.0,26.3,00.0,35.8,28.9,07.0,0000.0,0003.72,0002.41,0001.99
2022-01-07 21:32:00,,0812.1,5.00,0.00,27.0,26.4,00.0,35.8,28.9,07.2,0000.0,0003.71,0002.33,0001.90
2022-01-07 21:33:00,,0812.1,4.99,0.00,27.0,26.4,00.0,35.9,28.9,07.6,0000.0,0003.55,0002.19,0001.74
2022-01-07 21:34:00,,0812.2,5.01,0.00,27.0,26.4,00.0,35.9,28.9,07.4,0000.0,0003.46,0002.08,0001.63
2022-01-07 21:35:00,,0812.3,4.98,0.00,27.1,26.4,00.0,35.9,28.9,07.3,0000.0,0003.39,0001.99,0001.55
2022-01-07 21:36:00,,0812.2,5.00,0.00,27.1,26.4,00.0,35.9,29.0,07.1,0000.0,0003.36,0001.90,0001.47
2022-01-07 21:37:00,,0812.2,5.00,0.00,27.1,26.5,00.0,35.9,29.0,07.2,0000.0,0003.18,0001.83,0001.44
2022-01-07 21:38:00,,0812.4,4.99,0.00,27.1,26.5,00.0,35.9,29.0,07.3,0000.0,0003.29,0001.85,0001.48
2022-01-07 21:39:00,,0812.5,4.99,0.00,27.1,26.5,00.0,35.9,29.0,07.5,0000.0,0004.12,0001.87,0001.52
2022-01-07 21:40:00,,0812.6,5.01,0.00,27.2,26.6,00.0,36.0,29.1,07.2,0000.0,0004.17,0001.91,0001.56
2022-01-07 21:41:00,,0812.4,5.00,0.00,27.2,26.6,00.0,36.0,29.1,06.6,0000.0,0005.14,0001.91,0001.56
2022-01-07 21:42:00,,0812.4,5.00,0.00,27.2,26.6,00.0,36.0,29.1,06.4,0000.0,0005.16,0001.86,0001.53
2022-01-07 21:43:00,,0812.3,4.99,0.00,27.2,26.6,00.0,36.0,29.1,06.3,0000.0,0005.05,0001.75,0001.42
2022-01-07 21:44:00,,0812.3,5.00,0.00,27.3,26.6,00.0,36.1,29.2,06.7,0000.0,0004.86,0001.62,0001.32
2022-01-07 21:45:00,,0812.2,5.01,0.00,27.3,26.7,00.0,36.1,29.2,06.7,0000.0,0004.61,0001.50,0001.23
2022-01-07 21:46:00,,0812.2,4.97,0.00,27.3,26.7,00.0,36.1,29.2,06.7,0000.0,0004.32,0001.36,0001.11
2022-01-07 21:47:00,,0812.3,5.01,0.00,27.3,26.7,00.0,36.1,29.2,07.0,0000.0,0004.00,0001.25,0001.01
2022-01-07 21:48:00,,0812.2,4.98,0.00,27.3,26.7,00.0,36.1,29.2,06.8,0000.0,0003.96,0001.19,0000.94
2022-01-07 21:49:00,,0812.3,5.01,0.00,27.3,26.7,00.0,36.2,29.2,06.9,0000.0,0003.89,0001.10,0000.84
2022-01-07 21:50:00,,0812.4,4.99,0.00,27.3,26.7,00.0,36.2,29.2,07.3,0000.0,0002.72,0000.98,0000.75
2022-01-07 21:51:00,,0812.4,5.00,0.00,27.4,26.7,00.0,36.2,29.2,07.5,0000.0,0002.98,0000.84,0000.66
2022-01-07 21:52:00,,0812.2,5.01,0.00,27.3,26.6,00.0,36.2,29.2,07.1,0000.0,0003.03,0000.79,0000.62
2022-01-07 21:53:00,,0812.1,4.99,0.00,27.3,26.6,00.0,36.2,29.2,06.7,0000.0,0002.60,0000.75,0000.57
2022-01-07 21:54:00,,0812.0,5.01,0.00,27.3,26.6,00.0,36.2,29.2,06.6,0000.0,0002.48,0000.72,0000.55
2022-01-07 21:55:00,,0812.2,4.99,0.00,27.3,26.6,00.0,36.2,29.1,06.8,0000.0,0002.38,0000.67,0000.52
2022-01-07 21:56:00,,0812.1,5.01,0.00,27.3,26.6,00.0,36.2,29.1,07.0,0000.0,0002.33,0000.64,0000.49
2022-01-07 21:57:00,,0812.2,5.01,0.00,27.3,26.6,00.0,36.2,29.1,06.7,0000.0,0002.35,0000.63,0000.47
2022-01-07 21:58:00,,0812.3,5.00,0.00,27.3,26.6,00.0,36.2,29.1,07.5,0000.0,0002.29,0000.60,0000.44
2022-01-07 21:59:00,,0812.0,5.00,0.00,27.3,26.6,00.0,36.3,29.1,07.3,0000.0,0002.15,0000.52,0000.39
